GW1540 Weather Reports


time (UTC)temp
C
wind
direction
speed
KPH
gust
KPH
rain 1hr
cm
rain 24hr
cm
rain mn
cm
humidity
%
barometer
mb
20260902163104 20 214 1.6 4.8 0.00 0.00 0.00 76 1018.6
20260902161541 21 212 1.6 6.4 0.00 0.00 0.00 67 1018.3
20260902160043 21 215 0.0 8.0 0.00 0.00 0.00 65 1018.2
20260902153053 21 219 0.0 4.8 0.00 0.00 0.00 71 1018.6
20260902150056 23 316 3.2 14.5 0.00 0.00 0.00 61 1018.5
20260902144545 23 244 6.4 12.9 0.00 0.00 0.00 58 1018.8
20260902142726 23 229 3.2 17.7 0.00 0.00 0.00 58 1019.0
20260902134532 23 202 3.2 9.7 0.00 0.00 0.00 59 1019.5
20260902131546 23 248 3.2 14.5 0.00 0.00 0.00 62 1019.3
20260902124550 23 191 1.6 12.9 0.00 0.00 0.00 63 1019.6
20260902123033 23 244 1.6 11.3 0.00 0.00 0.00 60 1019.6
20260902120040 23 218 4.8 12.9 0.00 0.00 0.00 61 1019.7
20260902113052 23 144 4.8 11.3 0.00 0.00 0.00 61 1020.1
20260902111539 22 294 1.6 9.7 0.00 0.00 0.00 62 1020.2
20260902104602 22 135 3.2 8.0 0.00 0.00 0.00 67 1020.6
20260902103059 21 184 1.6 11.3 0.00 0.00 0.00 65 1020.6
20260902101555 22 202 6.4 17.7 0.00 0.00 0.00 64 1020.7
20260902100109 22 234 1.6 8.0 0.00 0.00 0.00 67 1020.6
20260902094530 21 301 1.6 6.4 0.00 0.00 0.00 66 1020.6
20260902091611 22 291 1.6 6.4 0.00 0.00 0.00 62 1020.8
20260902084610 21 42 1.6 9.7 0.00 0.00 0.00 70 1020.7
20260902083051 21 281 3.2 6.4 0.00 0.00 0.00 69 1020.7
20260902074555 17 215 0.0 3.2 0.00 0.00 0.00 88 1020.6
20260902073047 16 215 0.0 3.2 0.00 0.00 0.00 94 1020.8
20260902070108 14 215 0.0 3.2 0.00 0.00 0.00 96 1020.5
20260902063306 12 215 1.6 3.2 0.00 0.00 0.00 96 1020.6
20260902060034 11 215 0.0 0.0 0.00 0.00 0.00 95 1020.7
20260902053031 10 215 0.0 3.2 0.00 0.03 0.00 95 1020.4
20260902050058 10 215 0.0 3.2 0.00 0.03 0.00 95 1020.1
20260902043050 8 215 0.0 3.2 0.00 0.03 0.00 94 1020.3
20260902040243 8 215 0.0 1.6 0.00 0.03 0.00 94 1020.3
20260902033047 8 215 0.0 0.0 0.00 0.03 0.00 94 1020.2
20260902030054 8 215 0.0 0.0 0.00 0.03 0.00 94 1020.2
20260902023101 8 215 0.0 0.0 0.00 0.03 0.00 93 1020.2
20260902021534 9 215 0.0 0.0 0.00 0.03 0.00 94 1020.1
20260902014559 9 215 0.0 0.0 0.00 0.03 0.00 93 1020.3
20260902011604 10 215 0.0 0.0 0.00 0.03 0.00 93 1020.4
20260902010047 10 215 0.0 0.0 0.00 0.03 0.00 93 1020.5
20260902004534 10 215 0.0 0.0 0.00 0.03 0.00 94 1020.6
20260902001600 10 215 0.0 3.2 0.00 0.03 0.00 93 1020.6
20260901234613 10 215 0.0 0.0 0.00 0.03 0.00 94 1020.7
20260901231604 10 215 0.0 0.0 0.00 0.03 0.00 93 1020.6
20260901230037 11 215 0.0 0.0 0.00 0.03 0.00 93 1020.6
20260901223104 11 215 0.0 3.2 0.00 0.03 0.00 93 1020.4
20260901220200 11 215 0.0 0.0 0.00 0.03 0.00 93 1020.5
20260901213108 12 215 0.0 0.0 0.00 0.03 0.03 92 1020.5
20260901211548 12 215 0.0 0.0 0.00 0.03 0.03 93 1020.4
20260901204538 12 215 0.0 0.0 0.00 0.03 0.03 90 1020.3
20260901201605 12 215 0.0 1.6 0.00 0.03 0.03 90 1020.3
20260901200117 13 215 0.0 0.0 0.00 0.03 0.03 89 1020.3
20260901193054 14 215 0.0 0.0 0.00 0.03 0.03 87 1019.9
20260901191549 15 215 0.0 1.6 0.00 0.03 0.03 87 1020.0
20260901190040 15 215 0.0 3.2 0.00 0.03 0.03 87 1019.6
20260901184543 15 215 1.6 3.2 0.00 0.03 0.03 87 1019.5
20260901183027 16 215 0.0 3.2 0.00 0.03 0.03 86 1019.6
20260901180044 17 215 0.0 3.2 0.00 0.03 0.03 85 1019.5
20260901173052 17 215 1.6 3.2 0.00 0.03 0.03 84 1019.3
20260901170043 18 215 1.6 3.2 0.00 0.03 0.03 83 1019.1